Wiscasset, ME

4:55 PM EDT on August 29, 2016 (GMT -0400)
Wiscasset

Weather History for KIWI - April, 2014

Change the Weather History Date:

Thursday, April 10, 2014

  Actual Average Record
Temperature  
Mean Temperature 37 °F -  
Max Temperature 51 °F 49 °F 66 °F (2005)
Min Temperature 24 °F 28 °F 19 °F (1997)
Degree Days  
Heating Degree Days 28    
Moisture  
Dew Point 24 °F    
Average Humidity 53    
Maximum Humidity 77    
Minimum Humidity 35    
Precipitation  
Precipitation 0.00 in - - ()
Sea Level Pressure  
Sea Level Pressure 30.03 in    
Wind  
Wind Speed 5 mph (SSW)    
Max Wind Speed 16 mph    
Max Gust Speed 26 mph    
Visibility 10 miles    
Events      
Averages and records for this station are not official NWS values.
T = Trace of Precipitation, MM = Missing Value Source: NWS Daily Summary

Daily Weather History Graph

Daily Weather History Graph

Search for Another Location

Airport or City:

Trip Planner

Search our weather history database for the weather conditions in past years. The results will help you decide how hot, cold, wet, or windy it might be!

Date:

Astronomy

Apr. 10, 2014 Rise Set
Actual Time 6:04 AM EDT 7:16 PM EDT
Civil Twilight 5:34 AM EDT 7:46 PM EDT
Nautical Twilight 4:59 AM EDT 8:22 PM EDT
Astronomical Twilight 4:21 AM EDT 8:59 PM EDT
Moon 2:49 PM EDT (4/10) 3:34 AM EDT (4/10)
Length of Visible Light 14h 11m
Length of Day
13h 12m
Waxing Gibbous, 79% of the Moon is Illuminated
Apr 10
Waxing Gibbous
Apr 15
Full
Apr 22
Last Quarter
Apr 29
New
May 6
First Quarter

Hourly Weather History & Observations

Time (EDT) Temp. Windchill Dew Point Humidity Pressure Visibility Wind Dir Wind Speed Gust Speed Precip Events Conditions
12:53 AM 33.1 °F 30.0 °F 16.0 °F 50% 29.95 in 10.0 mi Variable 3.5 mph - N/A   Clear
1:53 AM 27.0 °F - 18.0 °F 69% 29.97 in 10.0 mi Calm Calm - N/A   Clear
2:53 AM 27.0 °F - 19.0 °F 72% 29.99 in 10.0 mi Calm Calm - N/A   Clear
3:53 AM 26.1 °F - 19.0 °F 75% 30.01 in 10.0 mi Calm Calm - N/A   Clear
4:53 AM 25.0 °F - 18.0 °F 75% 30.04 in 10.0 mi Calm Calm - N/A   Clear
5:53 AM 24.1 °F - 18.0 °F 77% 30.06 in 10.0 mi Calm Calm - N/A   Clear
6:53 AM 27.0 °F - 19.9 °F 75% 30.09 in 10.0 mi Calm Calm - N/A   Clear
7:53 AM 35.1 °F 32.2 °F 23.0 °F 61% 30.11 in 10.0 mi South 3.5 mph - N/A   Clear
8:53 AM 41.0 °F 37.1 °F 21.0 °F 45% 30.12 in 10.0 mi SSW 5.8 mph - N/A   Clear
10:53 AM 46.0 °F 41.0 °F 19.9 °F 35% 30.12 in 10.0 mi SSW 10.4 mph - N/A   Clear
11:53 AM 48.0 °F - 24.1 °F 39% 30.10 in 10.0 mi SSW 8.1 mph 18.4 mph N/A   Clear
12:53 PM 48.9 °F - 25.0 °F 39% 30.09 in 10.0 mi SSW 9.2 mph - N/A   Clear
1:53 PM 48.9 °F - 23.0 °F 36% 30.07 in 10.0 mi SSW 16.1 mph 25.3 mph N/A   Clear
2:53 PM 48.9 °F - 25.0 °F 39% 30.06 in 10.0 mi SSW 13.8 mph 23.0 mph N/A   Clear
3:53 PM 50.0 °F - 28.0 °F 43% 30.04 in 10.0 mi SW 10.4 mph 24.2 mph N/A   Clear
4:53 PM 50.0 °F - 28.0 °F 43% 30.01 in 10.0 mi SSW 13.8 mph 23.0 mph N/A   Clear
5:53 PM 48.0 °F - 26.1 °F 42% 30.00 in 10.0 mi SSW 16.1 mph 26.5 mph N/A   Clear
6:53 PM 46.0 °F 41.4 °F 26.1 °F 46% 29.98 in 10.0 mi SSW 9.2 mph 24.2 mph N/A   Clear
7:53 PM 46.0 °F 41.4 °F 27.0 °F 47% 29.99 in 10.0 mi SSW 9.2 mph 23.0 mph N/A   Clear
8:53 PM 46.0 °F 40.2 °F 28.9 °F 51% 29.99 in 10.0 mi SSW 12.7 mph 23.0 mph N/A   Clear
9:53 PM 46.0 °F 40.6 °F 30.0 °F 54% 29.98 in 10.0 mi SSW 11.5 mph - N/A   Clear
10:53 PM 46.0 °F 42.5 °F 28.9 °F 51% 29.98 in 10.0 mi South 6.9 mph 16.1 mph N/A   Clear
11:53 PM 45.0 °F 39.7 °F 30.9 °F 58% 29.96 in 10.0 mi SSW 10.4 mph - N/A   Clear